timestamp,wind_dir_avg,wind_spd_avg,wind_spd_max_dir,wind_spd_gust,battery_voltage,lat,long
2021-08-27 00:04:01+00:00,236.0,3.94,244.0,4.61,12.73,47.59359,-54.27349
2021-08-27 00:14:01+00:00,225.0,4.89,236.0,5.98,12.65,47.59359,-54.27349
2021-08-27 00:24:01+00:00,214.0,4.95,214.0,5.66,12.65,47.59359,-54.27349
2021-08-27 00:34:01+00:00,212.0,5.38,218.0,5.76,12.65,47.59359,-54.27349
2021-08-27 00:44:01+00:00,210.0,5.23,206.0,6.15,12.65,47.59359,-54.27349
2021-08-27 00:54:01+00:00,185.0,6.99,183.0,7.7,12.65,47.59359,-54.27349
2021-08-27 01:04:01+00:00,174.0,5.71,171.0,7.07,12.65,47.59359,-54.27349
2021-08-27 01:14:00+00:00,182.0,7.36,183.0,7.81,12.65,47.59359,-54.27349
2021-08-27 01:24:00+00:00,179.0,7.07,176.0,7.85,12.65,47.59359,-54.27349
2021-08-27 01:34:00+00:00,181.0,5.74,178.0,6.66,12.65,47.59359,-54.27349
2021-08-27 01:44:00+00:00,180.0,5.54,184.0,6.31,12.65,47.59359,-54.27349
2021-08-27 01:54:00+00:00,178.0,6.31,177.0,6.94,12.65,47.59359,-54.27349
2021-08-27 02:04:00+00:00,173.0,5.99,176.0,6.58,12.65,47.59359,-54.27349
2021-08-27 02:14:01+00:00,168.0,6.08,165.0,7.08,12.65,47.59359,-54.27349
2021-08-27 02:24:01+00:00,172.0,5.4,167.0,5.99,12.65,47.59359,-54.27349
2021-08-27 02:34:01+00:00,180.0,6.28,180.0,6.94,12.65,47.59359,-54.27349
2021-08-27 02:44:01+00:00,183.0,5.85,180.0,6.6,12.65,47.59359,-54.27349
2021-08-27 02:54:01+00:00,185.0,5.29,188.0,5.89,12.65,47.59359,-54.27349
2021-08-27 03:04:01+00:00,173.0,6.15,173.0,6.8,12.65,47.59359,-54.27349
2021-08-27 03:14:00+00:00,174.0,4.99,175.0,5.5,12.65,47.59359,-54.27349
2021-08-27 03:24:00+00:00,175.0,5.31,175.0,6.17,12.65,47.59359,-54.27349
2021-08-27 03:34:00+00:00,167.0,4.62,167.0,5.53,12.65,47.59359,-54.27349
2021-08-27 03:44:00+00:00,184.0,5.34,183.0,6.02,12.65,47.59359,-54.27349
2021-08-27 03:54:00+00:00,181.0,5.7,178.0,6.23,12.65,47.59359,-54.27349
2021-08-27 04:04:00+00:00,181.0,5.56,179.0,6.13,12.65,47.59359,-54.27349
2021-08-27 04:14:00+00:00,188.0,5.06,188.0,5.78,12.65,47.59359,-54.27349
2021-08-27 04:24:00+00:00,188.0,6.14,192.0,6.96,12.65,47.59359,-54.27349
2021-08-27 04:34:00+00:00,187.0,6.61,187.0,7.08,12.65,47.59359,-54.27349
2021-08-27 04:44:00+00:00,188.0,6.64,189.0,7.76,12.65,47.59359,-54.27349
2021-08-27 04:54:00+00:00,191.0,6.19,187.0,6.77,12.65,47.59359,-54.27349
2021-08-27 05:04:00+00:00,189.0,5.85,189.0,6.91,12.65,47.59359,-54.27349
2021-08-27 05:14:01+00:00,187.0,5.63,186.0,6.38,12.57,47.59359,-54.27349
2021-08-27 05:24:01+00:00,191.0,6.14,191.0,6.8,12.57,47.59359,-54.27349
2021-08-27 05:34:01+00:00,194.0,6.9,196.0,8.01,12.57,47.59359,-54.27349
2021-08-27 05:44:01+00:00,189.0,6.86,189.0,7.82,12.57,47.59359,-54.27349
2021-08-27 05:54:01+00:00,190.0,8.04,188.0,8.92,12.57,47.59359,-54.27349
2021-08-27 06:04:01+00:00,188.0,7.22,195.0,7.95,12.57,47.59359,-54.27349
2021-08-27 06:14:01+00:00,180.0,7.47,178.0,8.23,12.57,47.59359,-54.27349
2021-08-27 06:24:01+00:00,184.0,7.89,186.0,8.97,12.57,47.59359,-54.27349
2021-08-27 06:34:01+00:00,187.0,8.36,186.0,9.04,12.57,47.59359,-54.27349
2021-08-27 06:44:01+00:00,190.0,8.77,189.0,9.7,12.57,47.59359,-54.27349
2021-08-27 06:54:01+00:00,192.0,8.44,190.0,10.02,12.57,47.59359,-54.27349
2021-08-27 07:04:01+00:00,205.0,8.78,208.0,9.79,12.57,47.59359,-54.27349
2021-08-27 07:14:00+00:00,204.0,7.94,215.0,9.39,12.57,47.59359,-54.27349
2021-08-27 07:24:00+00:00,203.0,9.16,206.0,10.08,12.57,47.59359,-54.27349
2021-08-27 07:34:00+00:00,185.0,7.93,188.0,9.41,12.57,47.59359,-54.27349
2021-08-27 07:44:00+00:00,186.0,8.41,188.0,9.3,12.57,47.59359,-54.27349
2021-08-27 07:54:00+00:00,188.0,6.96,196.0,8.04,12.57,47.59359,-54.27349
2021-08-27 08:04:00+00:00,185.0,6.87,180.0,7.6,12.57,47.59359,-54.27349
2021-08-27 08:14:01+00:00,193.0,7.23,192.0,7.93,12.49,47.59359,-54.27349
2021-08-27 08:24:01+00:00,192.0,8.1,201.0,9.22,12.49,47.59359,-54.27349
2021-08-27 08:34:01+00:00,198.0,7.58,204.0,8.88,12.49,47.59359,-54.27349
2021-08-27 08:44:01+00:00,201.0,7.38,201.0,8.08,12.49,47.59359,-54.27349
2021-08-27 08:54:01+00:00,205.0,8.23,203.0,9.2,12.49,47.59359,-54.27349
2021-08-27 09:04:01+00:00,195.0,8.68,200.0,9.86,12.49,47.59359,-54.27349
2021-08-27 09:14:01+00:00,185.0,9.58,183.0,10.45,12.49,47.59359,-54.27349
2021-08-27 09:24:01+00:00,189.0,7.87,190.0,8.88,12.49,47.59359,-54.27349
2021-08-27 09:34:01+00:00,187.0,8.34,183.0,9.65,12.49,47.59359,-54.27349
2021-08-27 09:44:01+00:00,196.0,8.89,196.0,10.52,12.49,47.59359,-54.27349
2021-08-27 09:54:01+00:00,185.0,8.33,181.0,9.61,12.49,47.59359,-54.27349
2021-08-27 10:04:01+00:00,186.0,8.03,189.0,8.86,12.49,47.59359,-54.27349
2021-08-27 10:14:01+00:00,192.0,8.31,206.0,10.55,12.57,47.59359,-54.27349
2021-08-27 10:24:01+00:00,191.0,8.2,191.0,9.53,12.57,47.59359,-54.27349
2021-08-27 10:34:01+00:00,195.0,8.1,195.0,9.68,12.57,47.59359,-54.27349
2021-08-27 10:44:01+00:00,198.0,9.34,195.0,10.56,12.57,47.59359,-54.27349
2021-08-27 10:54:01+00:00,211.0,8.73,215.0,9.77,12.57,47.59359,-54.27349
2021-08-27 11:04:01+00:00,205.0,8.07,197.0,8.83,12.57,47.59359,-54.27349
2021-08-27 11:14:01+00:00,195.0,9.84,200.0,11.03,12.57,47.59359,-54.27349
2021-08-27 11:24:01+00:00,191.0,10.21,193.0,11.51,12.57,47.59359,-54.27349
2021-08-27 11:34:01+00:00,185.0,9.41,187.0,11.22,12.57,47.59359,-54.27349
2021-08-27 11:44:01+00:00,186.0,9.6,183.0,10.87,12.57,47.59359,-54.27349
2021-08-27 11:54:01+00:00,197.0,10.19,196.0,12.48,12.57,47.59359,-54.27349
2021-08-27 12:04:01+00:00,194.0,9.87,195.0,11.4,12.57,47.59359,-54.27349
2021-08-27 12:14:01+00:00,200.0,9.85,197.0,11.19,12.73,47.59359,-54.27349
2021-08-27 12:24:01+00:00,200.0,9.27,199.0,11.86,12.73,47.59359,-54.27349
2021-08-27 12:34:01+00:00,197.0,10.24,197.0,10.97,12.73,47.59359,-54.27349
2021-08-27 12:44:01+00:00,199.0,9.88,199.0,15.13,12.73,47.59359,-54.27349
2021-08-27 12:54:01+00:00,196.0,10.67,196.0,12.65,12.73,47.59359,-54.27349
2021-08-27 13:04:01+00:00,197.0,12.58,199.0,14.09,12.73,47.59359,-54.27349
2021-08-27 13:14:01+00:00,197.0,12.83,200.0,14.57,13.29,47.59359,-54.27349
2021-08-27 13:24:01+00:00,197.0,12.57,197.0,14.1,13.29,47.59359,-54.27349
2021-08-27 13:34:01+00:00,196.0,11.36,199.0,12.94,13.29,47.59359,-54.27349
2021-08-27 13:44:01+00:00,189.0,11.41,193.0,13.9,13.29,47.59359,-54.27349
2021-08-27 13:54:01+00:00,188.0,11.35,187.0,13.47,13.29,47.59359,-54.27349
2021-08-27 14:04:01+00:00,190.0,12.62,199.0,14.33,13.29,47.59359,-54.27349
2021-08-27 14:14:01+00:00,190.0,11.93,191.0,13.64,13.53,47.59359,-54.27349
2021-08-27 14:24:01+00:00,193.0,12.11,191.0,14.72,13.53,47.59359,-54.27349
2021-08-27 14:34:01+00:00,198.0,12.75,200.0,14.35,13.53,47.59359,-54.27349
2021-08-27 14:44:01+00:00,199.0,12.46,201.0,14.37,13.53,47.59359,-54.27349
2021-08-27 14:54:01+00:00,198.0,11.87,195.0,13.57,13.53,47.59359,-54.27349
2021-08-27 15:04:01+00:00,194.0,13.14,196.0,14.81,13.53,47.59359,-54.27349
2021-08-27 15:14:01+00:00,192.0,12.48,189.0,14.29,13.53,47.59359,-54.27349
2021-08-27 15:24:01+00:00,192.0,14.13,187.0,16.15,13.53,47.59359,-54.27349
2021-08-27 15:34:01+00:00,188.0,13.25,191.0,14.99,13.53,47.59359,-54.27349
2021-08-27 15:44:01+00:00,191.0,13.2,196.0,15.86,13.53,47.59359,-54.27349
2021-08-27 15:54:01+00:00,189.0,13.93,189.0,16.07,13.53,47.59359,-54.27349
2021-08-27 16:04:01+00:00,192.0,11.59,198.0,13.53,13.53,47.59359,-54.27349
2021-08-27 16:14:01+00:00,192.0,12.71,197.0,15.14,13.53,47.59359,-54.27349
2021-08-27 16:24:01+00:00,193.0,13.5,188.0,15.16,13.53,47.59359,-54.27349
2021-08-27 16:34:01+00:00,198.0,13.02,194.0,14.84,13.53,47.59359,-54.27349
2021-08-27 16:44:01+00:00,196.0,12.08,199.0,15.19,13.53,47.59359,-54.27349
2021-08-27 16:54:01+00:00,197.0,14.43,196.0,16.2,13.53,47.59359,-54.27349
2021-08-27 17:04:01+00:00,201.0,12.85,212.0,15.23,13.53,47.59359,-54.27349
2021-08-27 17:14:01+00:00,203.0,12.24,200.0,14.64,13.68,47.59359,-54.27349
2021-08-27 17:24:01+00:00,200.0,11.94,201.0,13.75,13.68,47.59359,-54.27349
2021-08-27 17:34:01+00:00,199.0,12.47,199.0,14.0,13.68,47.59359,-54.27349
2021-08-27 17:44:01+00:00,198.0,12.98,200.0,15.17,13.68,47.59359,-54.27349
2021-08-27 17:54:01+00:00,193.0,13.62,193.0,15.95,13.68,47.59359,-54.27349
2021-08-27 18:04:01+00:00,196.0,12.23,192.0,13.75,13.68,47.59359,-54.27349
2021-08-27 18:14:01+00:00,196.0,13.17,196.0,15.43,13.6,47.59359,-54.27349
2021-08-27 18:24:01+00:00,200.0,12.5,199.0,14.05,13.6,47.59359,-54.27349
2021-08-27 18:34:01+00:00,207.0,10.77,203.0,12.04,13.6,47.59359,-54.27349
2021-08-27 18:44:01+00:00,215.0,11.24,229.0,12.92,13.6,47.59359,-54.27349
2021-08-27 18:54:01+00:00,212.0,11.96,216.0,14.2,13.6,47.59359,-54.27349
2021-08-27 19:04:01+00:00,205.0,11.84,201.0,13.92,13.6,47.59359,-54.27349
2021-08-27 19:14:01+00:00,210.0,12.31,214.0,14.03,13.37,47.59359,-54.27349
2021-08-27 19:24:01+00:00,211.0,11.2,215.0,13.66,13.37,47.59359,-54.27349
2021-08-27 19:34:01+00:00,216.0,11.05,220.0,13.22,13.37,47.59359,-54.27349
2021-08-27 19:44:01+00:00,209.0,10.17,210.0,11.09,13.37,47.59359,-54.27349
2021-08-27 19:54:01+00:00,204.0,11.97,210.0,14.33,13.37,47.59359,-54.27349
2021-08-27 20:04:01+00:00,206.0,12.0,211.0,14.46,13.37,47.59359,-54.27349
2021-08-27 20:14:01+00:00,212.0,11.11,206.0,12.28,13.13,47.59359,-54.27349
2021-08-27 20:24:01+00:00,216.0,10.76,211.0,11.63,13.13,47.59359,-54.27349
2021-08-27 20:34:01+00:00,213.0,11.03,206.0,12.28,13.13,47.59359,-54.27349
2021-08-27 20:44:01+00:00,213.0,11.0,215.0,12.68,13.13,47.59359,-54.27349
2021-08-27 20:54:01+00:00,214.0,10.68,216.0,11.83,13.13,47.59359,-54.27349
2021-08-27 21:04:01+00:00,215.0,11.32,209.0,13.35,13.13,47.59359,-54.27349
2021-08-27 21:14:01+00:00,215.0,10.87,218.0,12.19,12.81,47.59359,-54.27349
2021-08-27 21:24:01+00:00,213.0,11.64,214.0,13.79,12.81,47.59359,-54.27349
2021-08-27 21:34:01+00:00,213.0,10.81,219.0,12.65,12.81,47.59359,-54.27349
2021-08-27 21:44:01+00:00,214.0,11.08,222.0,12.98,12.81,47.59359,-54.27349
2021-08-27 21:54:01+00:00,224.0,9.58,220.0,11.16,12.81,47.59359,-54.27349
2021-08-27 22:04:01+00:00,213.0,10.01,217.0,11.59,12.81,47.59359,-54.27349
2021-08-27 22:14:01+00:00,213.0,10.14,215.0,12.02,12.65,47.59359,-54.27349
2021-08-27 22:24:01+00:00,213.0,9.48,208.0,13.28,12.65,47.59359,-54.27349
2021-08-27 22:34:01+00:00,214.0,9.25,217.0,10.42,12.65,47.59359,-54.27349
2021-08-27 22:44:01+00:00,214.0,10.29,208.0,11.86,12.65,47.59359,-54.27349
2021-08-27 22:54:01+00:00,210.0,10.28,214.0,11.72,12.65,47.59359,-54.27349
2021-08-27 23:04:01+00:00,207.0,9.45,208.0,10.92,12.65,47.59359,-54.27349
2021-08-27 23:14:01+00:00,210.0,9.84,208.0,11.33,12.65,47.59359,-54.27349
2021-08-27 23:24:01+00:00,213.0,10.25,212.0,11.83,12.65,47.59359,-54.27349
2021-08-27 23:34:01+00:00,211.0,9.88,210.0,10.93,12.65,47.59359,-54.27349
2021-08-27 23:44:01+00:00,210.0,9.83,205.0,10.89,12.65,47.59359,-54.27349
2021-08-27 23:54:01+00:00,212.0,9.38,212.0,10.26,12.65,47.59359,-54.27349
